格洛纳斯M-725 COSMOS 2443 [GLONASS-M]

导读

COSMOS 2443(又名GLONASS)是由独联体(CIS)发射的格洛纳斯导航卫星,于2008年9月25日08:00发射入轨,属于俄罗斯全球卫星导航系统(GLONASS)的组网卫星之一。该卫星运行于约19100公里高度的中圆地球轨道,轨道倾角64.8°,运行周期约11小时15分,采用频分多址技术播发导航信号,为全球用户提供高精度定位、导航与授时服务,助力格洛纳斯系统完成全球组网部署。

基本信息
目录编号:
33379
目录名称:
COSMOS 2443 (GLONASS)
国际标识:
2008-046B
轨道中心:
EARTH
卫星名称:
格洛纳斯M-725
卫星全名:
格洛纳斯M-725 COSMOS 2443 [GLONASS-M]
卫星状态:
在轨 (已飞行6564 天)
发射日期:
2008-09-25 UTC
国别 :
俄罗斯(独联体) (CIS)
星等 :
--
该卫星已列入 空间交会检测服务 Space Conjunction Data Service (SCDS) ,当前飞行风险评估等级: 无高风险
轨道信息
数据来源 国际轨道数据 AOE轨道数据
星历时间 2026-09-12T06:27:33+0800
4天前
查看轨道信息
2026-09-13T07:00:00+0800
3天前
查看轨道信息
半长轴 25508.216km 25508.32km
偏心率 0.0016748 0.0016665
轨道倾角 65.420° 65.419°
近地点辐角 182.541° 182.656°
升交点赤经 312.047° 312.013°
平近点角 176.461° 240.781°
近地点 19087.357km 19087.673km
远地点 19172.801km 19172.693km
周期 675.740分钟 675.744分钟
每日圈数 2.130996 2.130983
详细信息
平衡模式:
三轴稳定
覆盖范围:
全球
运营商:
列舍特涅夫卫星信息系统
运营商所在国:
俄罗斯
制造商(研发单位):
列舍特涅夫卫星信息系统
制造商所在国:
俄罗斯
使用方式:
暂无
卫星简介
格洛纳斯(GLONASS )是苏联/俄罗斯研制卫星导航系统。标准配置为24颗卫星,其中18颗卫星就能保证该系统为俄罗斯境内用户提供全部服务。该卫星已退役。
2D轨道图
3D轨道图
轨道高度分析图
轨道倾角分析图
轨道综合分析图
查看轨道综合分析图
与全量物体交会距离演化趋势 订阅飞行安全评估服务
与全量物体交会风险概率演化趋势 订阅飞行安全评估服务